QPF
0.00 0.00 0.00 0.00 0.00 0.00 0.00 0.00 0.00 0.00 0.00 0.00 0.00 0.00 0.00 0.00 0.00 0.00 0.00 0.00 0.00 0.00 0.00 0.00 0.00 0.00 0.00 0.00 0.00 0.00 0.00 0.00 0.00 0.00 0.00 0.00 0.00 0.00 0.00 0.00 0.00 0.00 0.00 0.00 0.00 0.00 0.00 0.00 0.00 0.00 0.00 0.00
0.00 0.00 0.00 0.00 0.00 0.00 0.00 0.00 0.00 0.00 0.00 0.00 0.00 0.00 0.00 0.00 0.00 0.00 0.00 0.00 0.00 0.00 0.00 0.00 0.00 0.00 0.00 0.00 0.00 0.00 0.00 0.00 0.00 0.00 0.00 0.00 0.00 0.00 0.00 0.00 0.00 0.00 0.00 0.00 0.00 0.00 0.00 0.00 0.00 0.00 0.00 0.00
0.00 0.00 0.00 0.00 0.00 0.00 0.00 0.00 0.00 0.00 0.00 0.00 0.00 0.00 0.00 0.00 0.00 0.00 0.00 0.00 0.00 0.00 0.00 0.00 0.00 0.00 0.00 0.00 0.00 0.00 0.00 0.00 0.00 0.00 0.00 0.00 0.00 0.00 0.00 0.00 0.00 0.00 0.00 0.00 0.00 0.00 0.00 0.00 0.00 0.00 0.00 0.00
0.00 0.00 0.00 0.00 0.00 0.00 0.00 0.00 0.00 0.00 0.00 0.00 0.00 0.00 0.00 0.00 0.00 0.00 0.00 0.00 0.00 0.00 0.00 0.00 0.00 0.00 0.00 0.00 0.00 0.00 0.00 0.00 0.00 0.00 0.00 0.00 0.00 0.00 0.00 0.00 0.00 0.00 0.00 0.00 0.00 0.00 0.00 0.00 0.00 0.00 0.00 0.00
0.00 0.00 0.00 0.00 0.00 0.00 0.00 0.00 0.00 0.00 0.00 0.00 0.00 0.00 0.00 0.00 0.00 0.00 0.00 0.00 0.00 0.00 0.00 0.00 0.00 0.00 0.00 0.00 0.00 0.00 0.00 0.00 0.00 0.00 0.00 0.00 0.00 0.00 0.00 0.00 0.00 0.00 0.00 0.00 0.00 0.00 0.00 0.00 0.00 0.00 0.00 0.00
0.00 0.00 0.00 0.00 0.00 0.00 0.00 0.00 0.00 0.00 0.00 0.00 0.00 0.00 0.00 0.00 0.00 0.00 0.00 0.00 0.00 0.00 0.00 0.00 0.00 0.00 0.00 0.00 0.00 0.00 0.00 0.00 0.00 0.00 0.00 0.00 0.00 0.00 0.00 0.00 0.00 0.00 0.00 0.00 0.00 0.00 0.00 0.00 0.00 0.00 0.00 0.00
0.00 0.00 0.00 0.00 0.00 0.00 0.00 0.00 0.00 0.00 0.00 0.00 0.00 0.00 0.00 0.00 0.00 0.00 0.00 0.00 0.00 0.00 0.00 0.00 0.00 0.00 0.00 0.00 0.00 0.00 0.00 0.00 0.00 0.00 0.00 0.00 0.00 0.00 0.00 0.00 0.00 0.00 0.00 0.00 0.00 0.00 0.00 0.00 0.00 0.00 0.00 0.00
0.00 0.00 0.00 0.00 0.00 0.00 0.00 0.00 0.00 0.00 0.00 0.00 0.00 0.00 0.00 0.00 0.00 0.00 0.00 0.00 0.00 0.00 0.00 0.00 0.00 0.00 0.00 0.00 0.00 0.00 0.00 0.00 0.00 0.00 0.00 0.00 0.00 0.00 0.00 0.00 0.00 0.00 0.00 0.00 0.00 0.00 0.00 0.00 0.00 0.00 0.00 0.00
0.00 0.00 0.00 0.00 0.00 0.00 0.00 0.00 0.00 0.00 0.00 0.00 0.00 0.00 0.00 0.00 0.00 0.00 0.00 0.00 0.00 0.00 0.00 0.00 0.00 0.00 0.00 0.00 0.00 0.00 0.00 0.00 0.00 0.00 0.00 0.00 0.00 0.00 0.00 0.00 0.00 0.00 0.00 0.00 0.00 0.00 0.00 0.00 0.00 0.00 0.00 0.00
0.00 0.00 0.00 0.00 0.00 0.00 0.00 0.00 0.00 0.00 0.00 0.00 0.00 0.00 0.00 0.00 0.00 0.00 0.00 0.00 0.00 0.00 0.00 0.00 0.00 0.00 0.00 0.00 0.00 0.00 0.00 0.00 0.00 0.00 0.00 0.00 0.00 0.00 0.00 0.00 0.00 0.00 0.00 0.00 0.00 0.00 0.00 0.00 0.00 0.00 0.00 0.00
0.00 0.00 0.00 0.00 0.00 0.00 0.00 0.00 0.00 0.00 0.00 0.00 0.00 0.00 0.00 0.00 0.00 0.00 0.00 0.00 0.00 0.00 0.00 0.00 0.00 0.00 0.00 0.00 0.00 0.00 0.00 0.00 0.00 0.00 0.00 0.00 0.00 0.00 0.00 0.00 0.00 0.00 0.00 0.00 0.00 0.00 0.00 0.00 0.00 0.00 0.00 0.00
0.00 0.00 0.00 0.00 0.00 0.00 0.00 0.00 0.00 0.00 0.00 0.00 0.00 0.00 0.00 0.00 0.00 0.00 0.00 0.00 0.00 0.00 0.00 0.00 0.00 0.00 0.00 0.00 0.00 0.00 0.00 0.00 0.00 0.00 0.00 0.00 0.00 0.00 0.00 0.00 0.00 0.00 0.00 0.00 0.00 0.00 0.00 0.00 0.00 0.00 0.00 0.00
0.00 0.00 0.00 0.00 0.00 0.00 0.00 0.00 0.00 0.00 0.00 0.00 0.00 0.00 0.00 0.00 0.00 0.00 0.00 0.00 0.00 0.00 0.00 0.00 0.00 0.00 0.00 0.00 0.00 0.00 0.00 0.00 0.00 0.00 0.00 0.00 0.00 0.00 0.00 0.00 0.00 0.00 0.00 0.00 0.00 0.00 0.00 0.00 0.00 0.00 0.00 0.00
0.00 0.00 0.00 0.00 0.00 0.00 0.00 0.00 0.00 0.00 0.00 0.00 0.00 0.00 0.00 0.00 0.00 0.00 0.00 0.00 0.00 0.00 0.00 0.00 0.00 0.00 0.00 0.00 0.00 0.00 0.00 0.00 0.00 0.00 0.00 0.00 0.00 0.00 0.00 0.00 0.00 0.00 0.00 0.00 0.00 0.00 0.00 0.00 0.00 0.00 0.00 0.00
0.00 0.00 0.00 0.00 0.00 0.00 0.00 0.00 0.00 0.00 0.00 0.00 0.00 0.00 0.00 0.00 0.00 0.00 0.00 0.00 0.00 0.00 0.00 0.00 0.00 0.00 0.00 0.00 0.00 0.00 0.00 0.00 0.00 0.00 0.00 0.00 0.00 0.00 0.00 0.00 0.00 0.00 0.00 0.00 0.00 0.00 0.00 0.00 0.00 0.00 0.00 0.00
0.00 0.00 0.00 0.00 0.00 0.00 0.00 0.00 0.00 0.00 0.00 0.00 0.00 0.00 0.00 0.00 0.00 0.00 0.00 0.00 0.00 0.00 0.00 0.00 0.00 0.00 0.00 0.00 0.00 0.00 0.00 0.00 0.00 0.00 0.00 0.00 0.00 0.00 0.00 0.00 0.00 0.00 0.00 0.00 0.00 0.00 0.00 0.00 0.00 0.00 0.00 0.00
0.00 0.00 0.00 0.00 0.00 0.00 0.00 0.00 0.00 0.00 0.00 0.00 0.00 0.00 0.00 0.00 0.00 0.00 0.00 0.00 0.00 0.00 0.00 0.00 0.00 0.00 0.00 0.00 0.00 0.00 0.00 0.00 0.00 0.00 0.00 0.00 0.00 0.00 0.00 0.00 0.00 0.00 0.00 0.00 0.00 0.00 0.00 0.00 0.00 0.00 0.00 0.00
0.00 0.00 0.00 0.00 0.00 0.00 0.00 0.00 0.00 0.00 0.00 0.00 0.00 0.00 0.00 0.00 0.00 0.00 0.00 0.00 0.00 0.00 0.00 0.00 0.00 0.00 0.00 0.00 0.00 0.00 0.00 0.00 0.00 0.00 0.00 0.00 0.00 0.00 0.00 0.00 0.00 0.00 0.00 0.00 0.00 0.00 0.00 0.00 0.00 0.00 0.00 0.00
0.00 0.00 0.00 0.00 0.00 0.00 0.00 0.00 0.00 0.00 0.00 0.00 0.00 0.00 0.00 0.00 0.00 0.00 0.00 0.00 0.00 0.00 0.00 0.00 0.00 0.00 0.00 0.00 0.00 0.00 0.00 0.00 0.00 0.00 0.00 0.00 0.00 0.00 0.00 0.00 0.00 0.00 0.00 0.00 0.00 0.00 0.00 0.00 0.00 0.00 0.00 0.00
0.00 0.00 0.00 0.00 0.00 0.00 0.00 0.00 0.00 0.00 0.00 0.00 0.00 0.00 0.00 0.00 0.00 0.00 0.00 0.00 0.00 0.00 0.00 0.00 0.00 0.00 0.00 0.00 0.00 0.00 0.00 0.00 0.00 0.00 0.00 0.00 0.00 0.00 0.00 0.00 0.00 0.00 0.00 0.00 0.00 0.00 0.00 0.00 0.00 0.00 0.00 0.00
0.00 0.00 0.00 0.00 0.00 0.00 0.00 0.00 0.00 0.00 0.00 0.00 0.00 0.00 0.00 0.00 0.00 0.00 0.00 0.00 0.00 0.00 0.00 0.00 0.00 0.00 0.00 0.00 0.00 0.00 0.00 0.00 0.00 0.00 0.00 0.00 0.00 0.00 0.00 0.00 0.00 0.00 0.00 0.00 0.00 0.00 0.00 0.00 0.00 0.00 0.00 0.00
0.00 0.00 0.00 0.00 0.00 0.00 0.00 0.00 0.00 0.00 0.00 0.00 0.00 0.00 0.00 0.00 0.00 0.00 0.00 0.00 0.00 0.00 0.00 0.00 0.00 0.00 0.00 0.00 0.00 0.00 0.00 0.00 0.00 0.00 0.00 0.00 0.00 0.00 0.00 0.00 0.00 0.00 0.00 0.00 0.00 0.00 0.00 0.00 0.00 0.00 0.00 0.00
0.00 0.00 0.00 0.00 0.00 0.00 0.00 0.00 0.00 0.00 0.00 0.00 0.00 0.00 0.00 0.00 0.00 0.00 0.00 0.00 0.00 0.00 0.00 0.00 0.00 0.00 0.00 0.00 0.00 0.00 0.00 0.00 0.00 0.00 0.00 0.00 0.00 0.00 0.00 0.00 0.00 0.00 0.00 0.00 0.00 0.00 0.00 0.00 0.00 0.00 0.00 0.00
0.00 0.00 0.00 0.00 0.00 0.00 0.00 0.00 0.00 0.00 0.00 0.00 0.00 0.00 0.00 0.00 0.00 0.00 0.00 0.00 0.00 0.00 0.00 0.00 0.00 0.00 0.00 0.00 0.00 0.00 0.00 0.00 0.00 0.00 0.00 0.00 0.00 0.00 0.00 0.00 0.00 0.00 0.00 0.00 0.00 0.00 0.00 0.00 0.00 0.00 0.00 0.00
0.00 0.00 0.00 0.00 0.00 0.00 0.00 0.00 0.00 0.00 0.00 0.00 0.00 0.00 0.00 0.00 0.00 0.00 0.00 0.00 0.00 0.00 0.00 0.00 0.00 0.00 0.00 0.00 0.00 0.00 0.00 0.00 0.00 0.00 0.00 0.00 0.00 0.00 0.00 0.00 0.00 0.00 0.00 0.00 0.00 0.00 0.00 0.00 0.00 0.00 0.00 0.00
0.00 0.00 0.00 0.00 0.00 0.00 0.00 0.00 0.00 0.00 0.00 0.00 0.00 0.00 0.00 0.00 0.00 0.00 0.00 0.00 0.00 0.00 0.00 0.00 0.00 0.00 0.00 0.00 0.00 0.00 0.00 0.00 0.00 0.00 0.00 0.00 0.00 0.00 0.00 0.00 0.00 0.00 0.00 0.00 0.00 0.00 0.00 0.00 0.00 0.00 0.00 0.00
0.00 0.00 0.00 0.00 0.00 0.00 0.00 0.00 0.00 0.00 0.00 0.01 0.00 0.00 0.00 0.00 0.00 0.00 0.00 0.00 0.00 0.00 0.00 0.00 0.00 0.00 0.00 0.00 0.00 0.00 0.00 0.00 0.00 0.00 0.00 0.00 0.00 0.00 0.00 0.00 0.00 0.00 0.00 0.00 0.00 0.00 0.00 0.00 0.00 0.00 0.00 0.00
0.00 0.00 0.00 0.00 0.00 0.00 0.00 0.00 0.00 0.00 0.00 0.00 0.00 0.00 0.00 0.00 0.00 0.00 0.00 0.00 0.00 0.00 0.00 0.00 0.00 0.00 0.00 0.00 0.00 0.00 0.00 0.00 0.00 0.00 0.00 0.00 0.00 0.00 0.00 0.00 0.00 0.00 0.00 0.00 0.00 0.00 0.00 0.00 0.00 0.00 0.00 0.00
0.00 0.00 0.00 0.00 0.00 0.00 0.00 0.00 0.00 0.00 0.00 0.00 0.00 0.00 0.00 0.00 0.00 0.00 0.00 0.00 0.00 0.00 0.00 0.00 0.00 0.00 0.00 0.00 0.00 0.00 0.00 0.00 0.00 0.00 0.00 0.00 0.00 0.00 0.00 0.00 0.00 0.00 0.00 0.00 0.00 0.00 0.00 0.00 0.00 0.00 0.00 0.00
0.00 0.00 0.00 0.00 0.00 0.00 0.00 0.00 0.00 0.00 0.00 0.00 0.00 0.00 0.00 0.00 0.00 0.00 0.00 0.00 0.00 0.00 0.00 0.00 0.00 0.00 0.00 0.00 0.00 0.00 0.00 0.00 0.00 0.00 0.00 0.00 0.00 0.00 0.00 0.00 0.00 0.00 0.00 0.00 0.00 0.00 0.00 0.00 0.00 0.00 0.00 0.00
0.00 0.00 0.00 0.00 0.00 0.00 0.00 0.00 0.00 0.00 0.00 0.00 0.00 0.00 0.00 0.00 0.00 0.00 0.00 0.00 0.00 0.00 0.00 0.00 0.00 0.00 0.00 0.00 0.00 0.00 0.00 0.00 0.00 0.00 0.00 0.00 0.00 0.00 0.00 0.00 0.00 0.00 0.00 0.00 0.00 0.00 0.00 0.00 0.00 0.00 0.00 0.00
MSLP
1021.02 1021.30 1021.66 1021.90 1022.22 1022.46 1022.62 1022.82 1023.10 1023.34 1023.62 1023.94 1024.14 1024.30 1024.50 1024.70 1024.86 1025.10 1025.30 1025.42 1025.58 1025.74 1025.90 1026.22 1026.38 1026.42 1026.58 1026.66 1026.66 1026.70 1026.82 1026.86 1026.90 1027.06 1027.18 1027.30 1027.38 1027.38 1027.42 1027.50 1027.62 1027.70 1027.78 1027.86 1027.98 1028.06 1028.14 1028.18 1028.22 1028.26 1028.14 1028.14
1021.14 1021.34 1021.66 1021.98 1022.30 1022.54 1022.78 1022.98 1023.22 1023.46 1023.70 1023.98 1024.18 1024.38 1024.58 1024.82 1025.06 1025.26 1025.38 1025.50 1025.62 1025.78 1026.02 1026.26 1026.34 1026.38 1026.62 1026.74 1026.78 1026.90 1027.02 1027.10 1027.18 1027.34 1027.46 1027.58 1027.54 1027.58 1027.62 1027.74 1027.82 1027.94 1028.02 1028.10 1028.22 1028.34 1028.42 1028.46 1028.50 1028.50 1028.42 1028.42
1021.34 1021.46 1021.74 1022.02 1022.34 1022.62 1022.86 1023.14 1023.34 1023.54 1023.78 1024.02 1024.22 1024.46 1024.70 1024.98 1025.22 1025.38 1025.50 1025.70 1025.86 1026.06 1026.26 1026.46 1026.50 1026.58 1026.58 1026.70 1026.94 1027.06 1027.18 1027.34 1027.42 1027.58 1027.74 1027.74 1027.78 1027.82 1027.90 1027.94 1028.06 1028.18 1028.26 1028.38 1028.46 1028.58 1028.70 1028.74 1028.78 1028.74 1028.66 1028.74
1021.46 1021.62 1021.86 1022.10 1022.42 1022.70 1022.98 1023.22 1023.46 1023.66 1023.86 1024.06 1024.30 1024.58 1024.82 1025.10 1025.30 1025.46 1025.66 1025.86 1026.10 1026.30 1026.50 1026.66 1026.74 1026.70 1026.74 1026.78 1027.02 1027.22 1027.42 1027.58 1027.70 1027.82 1027.94 1027.98 1028.02 1028.10 1028.18 1028.22 1028.34 1028.46 1028.54 1028.66 1028.78 1028.90 1028.98 1029.06 1028.98 1028.98 1029.02 1028.98
1021.54 1021.78 1021.98 1022.26 1022.58 1022.82 1023.06 1023.30 1023.54 1023.78 1023.98 1024.22 1024.46 1024.70 1024.98 1025.22 1025.54 1025.74 1025.94 1026.14 1026.30 1026.50 1026.70 1026.78 1026.82 1026.78 1026.82 1026.82 1027.10 1027.42 1027.66 1027.82 1027.94 1028.10 1028.18 1028.30 1028.38 1028.50 1028.58 1028.66 1028.66 1028.74 1028.86 1028.94 1029.06 1029.22 1029.30 1029.26 1029.26 1029.42 1029.34 1029.22
1021.70 1021.90 1022.14 1022.38 1022.70 1022.98 1023.22 1023.42 1023.70 1023.98 1024.18 1024.42 1024.62 1024.86 1025.14 1025.42 1025.70 1025.94 1026.18 1026.34 1026.50 1026.66 1026.78 1026.90 1026.98 1026.98 1026.98 1026.98 1027.22 1027.54 1027.86 1028.02 1028.10 1028.26 1028.38 1028.50 1028.62 1028.74 1028.90 1029.06 1029.14 1029.22 1029.22 1029.30 1029.42 1029.50 1029.58 1029.54 1029.62 1029.66 1029.58 1029.46
1021.78 1021.98 1022.22 1022.58 1022.82 1023.10 1023.38 1023.66 1023.94 1024.18 1024.38 1024.58 1024.82 1025.06 1025.34 1025.62 1025.90 1026.06 1026.34 1026.50 1026.62 1026.74 1026.90 1027.02 1027.10 1027.14 1027.14 1027.26 1027.38 1027.70 1028.02 1028.18 1028.30 1028.42 1028.62 1028.74 1028.86 1029.06 1029.22 1029.38 1029.50 1029.62 1029.70 1029.74 1029.78 1029.78 1029.82 1029.86 1029.94 1029.90 1029.78 1029.66
1021.86 1022.10 1022.38 1022.66 1022.94 1023.26 1023.58 1023.86 1024.14 1024.34 1024.54 1024.78 1024.98 1025.26 1025.50 1025.78 1026.02 1026.22 1026.38 1026.62 1026.74 1026.86 1026.98 1027.18 1027.34 1027.46 1027.58 1027.70 1027.86 1028.10 1028.38 1028.50 1028.62 1028.78 1028.94 1029.10 1029.22 1029.42 1029.54 1029.62 1029.70 1029.78 1029.86 1029.98 1030.02 1030.06 1030.06 1030.10 1030.14 1030.02 1029.98 1029.90
1021.90 1022.14 1022.46 1022.78 1023.02 1023.34 1023.66 1023.98 1024.26 1024.46 1024.70 1024.94 1025.14 1025.38 1025.62 1025.86 1026.10 1026.30 1026.50 1026.74 1026.90 1027.10 1027.26 1027.42 1027.62 1027.78 1027.94 1028.06 1028.30 1028.46 1028.74 1028.90 1029.10 1029.18 1029.42 1029.50 1029.58 1029.70 1029.74 1029.78 1029.90 1029.90 1029.98 1030.10 1030.18 1030.22 1030.30 1030.30 1030.30 1030.26 1030.18 1030.14
1021.70 1022.02 1022.38 1022.78 1023.06 1023.34 1023.70 1023.98 1024.30 1024.54 1024.78 1025.06 1025.30 1025.46 1025.74 1025.98 1026.18 1026.46 1026.66 1026.86 1027.06 1027.30 1027.38 1027.58 1027.78 1027.98 1028.14 1028.26 1028.50 1028.66 1028.82 1029.06 1029.22 1029.42 1029.58 1029.66 1029.74 1029.90 1029.94 1030.02 1030.06 1030.10 1030.10 1030.18 1030.26 1030.38 1030.46 1030.46 1030.46 1030.42 1030.38 1030.30
1021.50 1021.86 1022.14 1022.50 1022.86 1023.14 1023.66 1023.90 1024.22 1024.54 1024.78 1025.02 1025.26 1025.50 1025.70 1025.90 1026.22 1026.46 1026.70 1026.90 1027.14 1027.38 1027.50 1027.66 1027.90 1028.10 1028.26 1028.34 1028.58 1028.74 1028.82 1029.18 1029.38 1029.46 1029.66 1029.74 1029.90 1030.02 1030.06 1030.18 1030.26 1030.34 1030.38 1030.38 1030.38 1030.50 1030.62 1030.66 1030.62 1030.58 1030.58 1030.50
1021.42 1021.78 1022.18 1022.58 1022.94 1023.14 1023.30 1023.62 1024.02 1024.38 1024.66 1024.94 1025.26 1025.46 1025.58 1025.74 1026.02 1026.30 1026.62 1026.90 1027.10 1027.38 1027.58 1027.74 1028.02 1028.22 1028.38 1028.50 1028.70 1028.86 1028.90 1029.14 1029.46 1029.58 1029.74 1029.82 1029.98 1030.02 1030.14 1030.22 1030.38 1030.46 1030.54 1030.58 1030.58 1030.58 1030.70 1030.74 1030.74 1030.74 1030.74 1030.70
1021.22 1021.58 1022.02 1022.46 1022.78 1023.10 1023.42 1023.58 1023.74 1024.14 1024.62 1024.90 1025.18 1025.42 1025.54 1025.66 1025.98 1026.30 1026.50 1026.78 1027.10 1027.42 1027.58 1027.90 1028.10 1028.22 1028.42 1028.62 1028.78 1028.90 1029.10 1029.14 1029.38 1029.58 1029.70 1029.78 1029.94 1030.06 1030.18 1030.30 1030.42 1030.50 1030.62 1030.66 1030.70 1030.70 1030.78 1030.82 1030.86 1030.90 1030.86 1030.82
1021.10 1021.42 1021.82 1022.18 1022.50 1022.82 1023.22 1023.42 1023.70 1024.10 1024.46 1024.70 1024.94 1025.26 1025.42 1025.54 1025.66 1025.94 1026.22 1026.66 1027.10 1027.26 1027.62 1027.90 1028.14 1028.30 1028.46 1028.62 1028.82 1028.86 1028.98 1029.22 1029.26 1029.46 1029.70 1029.86 1029.98 1030.10 1030.22 1030.30 1030.50 1030.50 1030.66 1030.78 1030.86 1030.86 1030.90 1030.94 1031.02 1031.02 1030.98 1030.98
1020.82 1021.14 1021.34 1021.74 1022.18 1022.66 1022.90 1023.30 1023.74 1024.06 1024.30 1024.62 1024.78 1024.90 1025.22 1025.46 1025.66 1025.90 1026.22 1026.50 1026.90 1027.22 1027.54 1027.86 1028.06 1028.26 1028.50 1028.66 1028.82 1028.86 1028.98 1029.22 1029.30 1029.46 1029.54 1029.70 1029.86 1030.02 1030.18 1030.38 1030.54 1030.54 1030.66 1030.82 1030.94 1031.02 1031.02 1031.14 1031.14 1031.14 1031.14 1031.10
1020.58 1020.86 1021.10 1021.58 1022.02 1022.42 1022.74 1023.18 1023.46 1023.82 1024.18 1024.42 1024.62 1024.86 1025.10 1025.30 1025.58 1025.82 1026.14 1026.38 1026.78 1027.02 1027.38 1027.66 1027.94 1028.18 1028.38 1028.46 1028.74 1028.86 1028.98 1029.22 1029.42 1029.50 1029.74 1029.90 1029.98 1030.14 1030.22 1030.50 1030.62 1030.66 1030.66 1030.86 1031.02 1031.10 1031.14 1031.22 1031.18 1031.22 1031.22 1031.18
1020.18 1020.54 1020.90 1021.22 1021.62 1022.10 1022.58 1022.98 1023.30 1023.62 1023.90 1024.14 1024.46 1024.74 1024.98 1025.18 1025.42 1025.70 1025.94 1026.34 1026.54 1026.86 1027.18 1027.46 1027.82 1028.10 1028.26 1028.38 1028.58 1028.82 1029.02 1029.22 1029.46 1029.62 1029.78 1030.02 1030.14 1030.26 1030.38 1030.50 1030.70 1030.86 1030.82 1030.90 1031.10 1031.14 1031.26 1031.22 1031.30 1031.38 1031.30 1031.30
1020.06 1020.30 1020.54 1020.94 1021.38 1021.82 1022.34 1022.66 1023.02 1023.30 1023.58 1023.90 1024.26 1024.54 1024.82 1025.02 1025.26 1025.50 1025.82 1026.10 1026.54 1026.78 1027.10 1027.42 1027.62 1027.82 1028.14 1028.38 1028.58 1028.78 1029.02 1029.18 1029.34 1029.46 1029.66 1029.90 1030.02 1030.18 1030.26 1030.38 1030.66 1030.74 1030.86 1031.10 1031.18 1031.18 1031.34 1031.30 1031.38 1031.42 1031.38 1031.42
1019.70 1020.06 1020.38 1020.78 1021.14 1021.50 1021.90 1022.30 1022.58 1022.90 1023.34 1023.66 1023.90 1024.26 1024.58 1024.78 1025.02 1025.30 1025.62 1025.90 1026.14 1026.62 1026.90 1027.18 1027.46 1027.74 1027.86 1028.26 1028.50 1028.70 1028.94 1029.02 1029.30 1029.42 1029.50 1029.74 1029.82 1030.10 1030.30 1030.42 1030.62 1030.66 1030.74 1030.98 1031.06 1031.18 1031.30 1031.26 1031.42 1031.46 1031.46 1031.54
1019.42 1019.74 1020.10 1020.42 1020.82 1021.18 1021.62 1021.98 1022.26 1022.54 1022.86 1023.18 1023.58 1023.98 1024.22 1024.50 1024.74 1025.02 1025.38 1025.70 1025.94 1026.30 1026.62 1026.86 1027.06 1027.38 1027.78 1028.18 1028.38 1028.58 1028.86 1029.06 1029.18 1029.34 1029.58 1029.70 1029.66 1029.94 1030.26 1030.42 1030.58 1030.70 1030.74 1030.90 1031.02 1031.22 1031.26 1031.34 1031.38 1031.38 1031.50 1031.54
1019.26 1019.58 1019.98 1020.30 1020.54 1020.82 1021.22 1021.54 1021.90 1022.22 1022.58 1023.02 1023.34 1023.70 1023.98 1024.22 1024.46 1024.74 1025.10 1025.42 1025.66 1025.90 1026.30 1026.58 1026.86 1027.26 1027.66 1028.02 1028.18 1028.46 1028.70 1028.86 1028.98 1029.22 1029.46 1029.74 1029.82 1029.62 1029.90 1030.22 1030.42 1030.66 1030.70 1030.86 1031.02 1031.22 1031.26 1031.34 1031.34 1031.30 1031.42 1031.50
1018.90 1019.22 1019.66 1020.10 1020.30 1020.58 1020.94 1021.26 1021.54 1021.86 1022.26 1022.62 1022.86 1023.22 1023.50 1023.86 1024.18 1024.46 1024.86 1025.18 1025.42 1025.62 1025.94 1026.22 1026.58 1027.10 1027.54 1027.86 1028.10 1028.34 1028.62 1028.74 1029.02 1029.18 1029.26 1029.54 1029.86 1029.86 1029.82 1030.02 1030.18 1030.38 1030.62 1030.78 1030.94 1031.06 1031.18 1031.26 1031.26 1031.26 1031.38 1031.50
1018.62 1019.10 1019.46 1019.78 1020.22 1020.58 1020.86 1021.18 1021.46 1021.74 1022.06 1022.34 1022.70 1022.94 1023.10 1023.50 1023.86 1024.14 1024.58 1024.86 1025.18 1025.46 1025.86 1026.22 1026.62 1026.98 1027.38 1027.62 1027.90 1028.22 1028.58 1028.82 1029.10 1029.22 1029.30 1029.30 1029.70 1029.98 1029.86 1029.78 1029.94 1030.06 1030.42 1030.70 1030.82 1030.94 1031.06 1031.18 1031.18 1031.26 1031.38 1031.42
1018.58 1019.02 1019.38 1019.86 1020.34 1020.70 1020.82 1020.98 1021.30 1021.66 1021.90 1022.18 1022.38 1022.54 1022.78 1023.14 1023.50 1023.74 1024.18 1024.58 1024.90 1025.18 1025.54 1025.94 1026.34 1026.74 1027.26 1027.46 1027.70 1028.06 1028.34 1028.58 1028.66 1028.74 1029.02 1029.22 1029.34 1029.74 1030.06 1030.10 1030.18 1030.30 1030.42 1030.66 1030.78 1030.82 1030.90 1031.06 1031.06 1031.10 1031.18 1031.22
1018.10 1018.62 1019.18 1019.58 1019.58 1019.58 1020.10 1020.66 1020.98 1021.38 1021.58 1021.74 1021.82 1022.10 1022.46 1022.82 1023.10 1023.42 1023.90 1024.34 1024.70 1024.94 1025.26 1025.66 1026.10 1026.58 1027.02 1027.22 1027.38 1027.50 1027.50 1027.62 1027.94 1028.26 1028.50 1028.86 1029.22 1029.46 1029.70 1030.02 1030.22 1030.30 1030.22 1030.22 1030.26 1030.62 1030.62 1030.58 1030.78 1030.82 1030.90 1030.90
1017.46 1017.62 1017.82 1018.22 1018.78 1019.42 1019.94 1020.46 1020.78 1021.10 1021.34 1021.38 1021.54 1021.70 1022.10 1022.54 1022.78 1023.14 1023.54 1023.90 1024.30 1024.58 1024.86 1025.34 1025.82 1026.14 1026.46 1026.82 1026.98 1027.02 1027.26 1027.78 1028.10 1028.38 1028.62 1028.82 1029.10 1029.30 1029.26 1029.30 1029.90 1030.06 1029.90 1030.06 1029.26 1029.22 1029.34 1029.70 1030.06 1030.46 1030.62 1030.66
1016.78 1017.22 1017.58 1017.82 1018.02 1018.58 1019.02 1019.26 1019.38 1019.62 1019.98 1020.50 1020.90 1021.26 1021.58 1022.06 1022.50 1022.86 1023.26 1023.58 1023.90 1024.14 1024.50 1024.74 1025.14 1025.54 1025.94 1026.38 1026.62 1027.02 1027.38 1027.62 1027.90 1028.02 1028.18 1028.34 1028.18 1028.94 1029.34 1029.26 1029.86 1029.82 1029.18 1028.70 1029.62 1029.58 1029.42 1028.82 1028.78 1029.30 1030.10 1030.18
1016.46 1016.78 1017.06 1017.54 1017.82 1018.22 1018.54 1018.82 1019.26 1019.70 1020.18 1020.70 1021.18 1021.58 1021.82 1022.06 1022.34 1022.58 1022.82 1023.14 1023.54 1023.78 1023.98 1024.22 1024.58 1025.06 1025.62 1025.94 1026.10 1026.22 1026.54 1027.02 1027.30 1027.66 1027.94 1028.10 1028.06 1028.10 1028.86 1029.14 1029.34 1029.46 1029.38 1029.02 1028.94 1029.38 1028.78 1029.30 1029.50 1028.30 1027.86 1028.46
1016.46 1016.98 1017.50 1017.86 1018.38 1018.62 1019.02 1019.42 1019.70 1020.14 1020.50 1020.62 1020.90 1021.26 1021.74 1021.86 1022.06 1022.22 1022.46 1022.74 1022.94 1023.18 1023.50 1023.90 1024.26 1024.66 1025.02 1025.34 1025.70 1025.86 1025.98 1026.34 1026.42 1026.74 1026.94 1027.26 1027.58 1027.70 1027.18 1028.14 1028.62 1029.34 1029.38 1029.14 1028.18 1027.82 1029.54 1030.26 1029.94 1028.38 1028.18 1029.26
1016.26 1016.54 1016.86 1017.62 1018.14 1018.66 1018.94 1019.14 1019.54 1019.54 1019.46 1020.50 1020.58 1020.62 1020.82 1021.30 1021.50 1021.74 1021.94 1022.22 1022.58 1022.86 1023.18 1023.54 1023.78 1024.10 1024.54 1024.94 1025.26 1025.38 1025.38 1025.58 1026.14 1026.66 1026.94 1027.02 1026.94 1027.14 1026.90 1026.78 1028.10 1028.82 1029.26 1029.14 1028.86 1028.70 1028.22 1028.06 1026.82 1027.10 1028.46 1028.26
1015.94 1016.26 1016.50 1016.70 1016.82 1017.02 1017.38 1017.58 1017.94 1018.30 1018.82 1019.22 1019.62 1019.90 1020.34 1020.58 1020.98 1021.22 1021.54 1021.86 1022.14 1022.42 1022.66 1022.98 1023.38 1023.74 1024.02 1024.26 1024.54 1024.86 1025.14 1025.42 1025.66 1025.78 1026.02 1026.38 1026.70 1026.58 1026.66 1026.98 1027.42 1027.86 1028.38 1029.22 1029.30 1029.02 1029.02 1029.34 1029.26 1028.82 1028.02 1027.42
Thickness
5589 5587 5585 5584 5582 5581 5582 5581 5580 5579 5578 5577 5576 5576 5576 5576 5576 5575 5575 5575 5574 5574 5575 5574 5574 5575 5575 5575 5576 5577 5577 5577 5577 5577 5577 5577 5578 5578 5579 5579 5580 5580 5580 5580 5580 5581 5581 5583 5583 5584 5586 5587
5586 5585 5583 5581 5580 5579 5578 5577 5577 5575 5575 5573 5572 5572 5572 5571 5571 5570 5571 5571 5571 5570 5570 5569 5570 5570 5571 5571 5571 5572 5572 5572 5572 5572 5571 5572 5572 5573 5574 5574 5574 5574 5574 5574 5575 5575 5576 5577 5578 5579 5580 5581
5582 5581 5581 5579 5577 5576 5575 5574 5574 5573 5571 5570 5569 5569 5568 5568 5567 5566 5566 5566 5565 5565 5565 5564 5565 5565 5566 5567 5566 5566 5566 5566 5566 5566 5566 5566 5567 5568 5568 5568 5568 5568 5569 5569 5569 5570 5570 5571 5572 5573 5574 5575
5578 5578 5577 5576 5574 5572 5571 5570 5570 5569 5568 5567 5567 5566 5565 5564 5563 5562 5561 5561 5560 5559 5559 5560 5560 5560 5561 5561 5561 5561 5560 5560 5560 5560 5560 5561 5561 5562 5562 5562 5562 5562 5563 5563 5563 5564 5564 5565 5566 5567 5567 5568
5575 5574 5573 5571 5570 5568 5567 5566 5565 5565 5564 5563 5563 5563 5562 5561 5560 5558 5557 5556 5556 5555 5555 5555 5555 5555 5556 5557 5556 5555 5555 5554 5554 5554 5555 5555 5555 5556 5556 5556 5557 5556 5556 5556 5557 5557 5558 5559 5560 5560 5561 5562
5570 5569 5569 5567 5565 5564 5563 5561 5560 5561 5560 5559 5559 5559 5558 5557 5556 5554 5553 5551 5550 5550 5550 5550 5550 5550 5551 5551 5551 5549 5549 5548 5548 5548 5549 5549 5549 5549 5550 5550 5550 5551 5550 5550 5551 5551 5552 5553 5553 5553 5555 5556
5566 5565 5564 5563 5561 5559 5558 5557 5556 5556 5555 5555 5555 5554 5554 5552 5551 5549 5548 5547 5546 5546 5545 5545 5545 5545 5546 5545 5545 5544 5543 5542 5542 5542 5542 5542 5542 5543 5543 5544 5544 5544 5545 5544 5544 5545 5546 5546 5546 5547 5548 5549
5562 5560 5559 5558 5557 5555 5553 5552 5551 5551 5551 5550 5550 5549 5549 5547 5546 5545 5543 5542 5542 5541 5541 5541 5540 5540 5540 5540 5540 5539 5537 5536 5537 5536 5536 5536 5536 5537 5537 5538 5538 5538 5538 5538 5538 5538 5539 5539 5540 5541 5542 5542
5559 5557 5555 5553 5552 5551 5549 5548 5547 5546 5546 5545 5544 5543 5543 5542 5541 5540 5539 5538 5537 5537 5536 5536 5535 5535 5534 5534 5533 5532 5532 5531 5531 5530 5530 5530 5530 5530 5530 5531 5531 5531 5532 5531 5532 5532 5532 5533 5533 5534 5534 5536
5557 5555 5552 5550 5549 5547 5545 5544 5543 5542 5541 5540 5539 5539 5538 5537 5536 5535 5534 5533 5533 5532 5531 5530 5529 5529 5528 5528 5527 5526 5526 5525 5525 5524 5524 5524 5524 5524 5524 5524 5524 5524 5525 5525 5525 5525 5525 5525 5526 5527 5527 5528
5553 5551 5548 5546 5545 5544 5542 5541 5539 5538 5537 5536 5535 5534 5533 5532 5531 5530 5529 5528 5527 5527 5526 5525 5524 5523 5523 5522 5521 5521 5521 5520 5519 5518 5518 5518 5518 5517 5517 5518 5517 5517 5517 5518 5518 5518 5518 5519 5519 5519 5520 5520
5549 5547 5544 5541 5540 5539 5538 5537 5536 5534 5533 5531 5530 5529 5529 5528 5527 5526 5524 5524 5522 5521 5520 5520 5519 5518 5517 5516 5516 5515 5514 5514 5513 5512 5512 5512 5512 5511 5511 5511 5511 5510 5510 5510 5511 5511 5511 5511 5512 5512 5512 5513
5546 5544 5541 5538 5536 5535 5533 5533 5532 5531 5529 5527 5526 5524 5524 5524 5522 5521 5520 5518 5517 5516 5514 5514 5513 5512 5511 5510 5510 5509 5508 5508 5507 5507 5506 5506 5505 5505 5505 5504 5504 5504 5504 5504 5504 5504 5504 5504 5505 5505 5505 5505
5543 5541 5539 5536 5534 5532 5530 5529 5528 5526 5525 5523 5521 5520 5519 5519 5518 5517 5515 5514 5512 5510 5509 5507 5507 5506 5505 5504 5504 5504 5503 5502 5502 5501 5500 5500 5499 5499 5498 5498 5498 5498 5497 5497 5497 5497 5497 5497 5497 5497 5498 5498
5541 5539 5538 5535 5532 5530 5527 5525 5524 5522 5521 5519 5518 5516 5515 5514 5513 5512 5510 5509 5507 5505 5503 5501 5500 5500 5499 5498 5498 5497 5497 5496 5495 5495 5494 5494 5493 5493 5492 5492 5491 5491 5491 5490 5489 5490 5490 5490 5490 5490 5490 5491
5538 5537 5534 5532 5530 5527 5525 5523 5521 5518 5517 5514 5513 5511 5510 5509 5508 5507 5505 5503 5502 5500 5498 5497 5495 5494 5493 5493 5492 5491 5491 5490 5489 5488 5488 5487 5487 5486 5486 5485 5484 5484 5484 5483 5483 5482 5483 5483 5483 5483 5483 5484
5536 5534 5532 5530 5527 5524 5521 5519 5517 5515 5513 5510 5508 5506 5506 5505 5503 5502 5500 5499 5497 5495 5494 5492 5490 5489 5488 5487 5486 5486 5484 5483 5482 5482 5481 5480 5480 5480 5479 5478 5477 5477 5477 5476 5476 5476 5476 5476 5476 5476 5477 5477
5533 5530 5528 5526 5523 5521 5518 5516 5514 5511 5509 5507 5505 5503 5501 5500 5499 5497 5496 5494 5492 5490 5489 5486 5485 5484 5483 5482 5481 5480 5478 5477 5476 5475 5475 5474 5473 5473 5473 5472 5471 5471 5470 5469 5469 5469 5470 5470 5470 5470 5470 5470
5530 5527 5525 5523 5520 5518 5515 5513 5511 5508 5506 5503 5501 5500 5497 5496 5494 5493 5491 5490 5488 5485 5483 5481 5480 5479 5478 5477 5475 5474 5473 5471 5470 5470 5469 5469 5468 5466 5466 5466 5465 5465 5465 5464 5464 5464 5464 5464 5464 5464 5464 5465
5526 5524 5521 5519 5517 5514 5512 5510 5508 5505 5503 5501 5498 5496 5494 5493 5491 5489 5487 5485 5483 5481 5478 5477 5476 5474 5473 5471 5470 5469 5467 5467 5465 5464 5463 5463 5463 5462 5461 5460 5459 5459 5459 5459 5458 5458 5458 5458 5458 5458 5458 5458
5523 5521 5518 5515 5513 5511 5509 5507 5505 5503 5500 5497 5495 5493 5490 5489 5487 5485 5482 5480 5479 5476 5474 5473 5471 5470 5468 5467 5465 5465 5463 5462 5461 5459 5458 5457 5456 5457 5456 5455 5454 5454 5454 5454 5453 5452 5453 5453 5453 5452 5452 5452
5520 5518 5514 5512 5510 5508 5506 5504 5502 5499 5497 5495 5492 5490 5487 5485 5483 5481 5478 5476 5475 5472 5471 5469 5467 5466 5464 5463 5461 5460 5458 5457 5455 5454 5453 5452 5450 5451 5451 5451 5451 5450 5449 5448 5447 5446 5447 5447 5447 5446 5446 5446
5516 5513 5510 5508 5505 5503 5502 5500 5497 5495 5494 5491 5488 5487 5485 5483 5480 5477 5475 5473 5471 5469 5467 5465 5463 5462 5460 5459 5457 5455 5453 5450 5449 5447 5447 5446 5445 5445 5446 5447 5446 5445 5443 5441 5441 5441 5441 5440 5441 5441 5441 5440
5512 5509 5506 5503 5500 5499 5498 5495 5492 5491 5489 5487 5485 5484 5482 5481 5478 5476 5473 5470 5468 5466 5464 5462 5460 5458 5456 5455 5453 5450 5448 5446 5445 5444 5443 5442 5441 5441 5440 5440 5440 5439 5438 5436 5435 5434 5435 5435 5435 5435 5435 5435
5510 5507 5503 5500 5499 5497 5494 5491 5488 5487 5485 5484 5483 5481 5479 5478 5475 5473 5470 5467 5465 5463 5461 5459 5456 5454 5452 5449 5448 5446 5445 5444 5442 5440 5439 5437 5436 5436 5435 5434 5433 5432 5432 5431 5431 5431 5431 5431 5431 5431 5430 5430
5510 5507 5504 5501 5499 5495 5491 5488 5487 5485 5483 5482 5480 5479 5476 5475 5472 5470 5467 5464 5462 5460 5458 5455 5453 5451 5448 5446 5444 5442 5440 5437 5436 5434 5434 5433 5433 5432 5431 5431 5428 5427 5428 5428 5429 5429 5429 5430 5429 5427 5426 5426
5509 5506 5503 5500 5498 5494 5490 5488 5487 5485 5483 5480 5477 5476 5474 5471 5468 5466 5463 5461 5458 5456 5454 5452 5450 5447 5444 5442 5440 5438 5435 5433 5432 5430 5430 5430 5431 5428 5426 5425 5422 5422 5425 5425 5423 5423 5426 5429 5429 5428 5426 5423
5506 5502 5498 5495 5493 5490 5487 5486 5483 5480 5478 5476 5473 5470 5468 5466 5463 5461 5459 5456 5454 5452 5451 5448 5446 5443 5440 5437 5437 5435 5433 5431 5430 5429 5428 5427 5427 5426 5423 5420 5418 5418 5419 5421 5421 5420 5420 5418 5419 5429 5430 5423
5500 5496 5492 5488 5484 5481 5480 5478 5476 5473 5472 5470 5468 5465 5462 5460 5458 5456 5455 5452 5450 5448 5446 5444 5442 5439 5437 5435 5433 5433 5432 5431 5429 5427 5426 5425 5423 5424 5423 5421 5416 5414 5413 5415 5418 5419 5418 5414 5415 5424 5422 5418
5495 5492 5489 5485 5481 5478 5476 5474 5472 5472 5469 5465 5463 5462 5459 5457 5454 5453 5451 5449 5447 5445 5443 5441 5440 5437 5435 5433 5431 5431 5430 5429 5426 5424 5422 5421 5420 5420 5421 5419 5414 5411 5408 5408 5410 5412 5414 5414 5417 5419 5413 5414
5492 5489 5487 5484 5482 5480 5477 5476 5475 5471 5467 5464 5461 5458 5456 5454 5452 5450 5447 5446 5444 5442 5440 5439 5436 5435 5433 5431 5430 5428 5426 5425 5423 5421 5420 5417 5417 5416 5415 5415 5413 5410 5405 5402 5403 5403 5404 5404 5405 5408 5407 5410